SCP
0 0 0 0 0 0 0 0 0 0 0 0 0 0 0 0 0 0 0 0 0 0 0 0 0 0 0 0 0 0 0 0 0 0 0 0 0 0 0 0 0 0 0 0 0 0 0
0 0 0 0 0 0 0 0 0 0 0 0 0 0 0 0 0 0 0 0 0 0 0 0 0 0 0 0 0 0 0 0 0 0 0 0 0 0 0 0 0 0 0 0 0 0 0
0 0 0 0 0 0 0 0 0 0 0 0 0 0 0 0 0 0 0 0 0 0 0 0 0 0 0 0 0 0 0 0 0 0 0 0 0 0 0 0 0 0 0 0 0 0 0
0 0 0 0 0 0 0 0 0 0 0 0 0 0 0 0 0 0 0 0 0 0 0 0 0 0 0 0 0 0 0 0 0 0 0 0 0 0 0 0 0 0 0 0 0 0 0
0 0 0 0 0 0 0 0 0 0 0 0 0 0 0 0 0 0 0 0 0 0 0 0 0 0 0 0 0 0 0 0 0 0 0 0 0 0 0 0 0 0 0 0 0 0 0
0 0 0 0 -0 0 0 0 0 0 0 0 0 0 0 0 0 0 0 0 0 0 0 0 0 0 0 0 0 0 0 0 0 0 0 0 0 0 0 0 0 0 0 0 0 0 0
0 0 0 0 0 -0 0 0 0 0 0 0 0 0 0 0 0 0 0 0 0 0 0 0 0 0 0 0 0 0 0 0 0 0 0 0 0 0 0 0 0 0 0 0 0 0 0
0 0 0 0 0 -0 -0 0 0 0 0 0 0 0 0 0 0 0 0 0 0 0 0 0 0 0 0 0 0 0 0 0 0 0 0 0 0 0 0 0 0 0 0 0 0 0 0
0 0 0 0 0 0 -0 0 0 0 0 0 0 0 0 0 0 0 0 0 0 0 0 0 0 0 0 0 0 0 0 0 0 0 0 0 0 0 0 0 0 0 0 0 0 0 0
0 0 0 0 0 0 0 0 0 0 0 0 0 0 0 0 0 0 0 0 0 0 0 0 0 0 0 0 0 0 0 0 0 0 0 0 0 0 0 0 0 0 0 0 0 0 0
0 0 0 0 0 0 0 0 0 -0 0 0 0 0 0 0 0 0 0 0 0 0 0 0 0 0 0 0 0 0 0 0 0 0 0 0 0 0 0 0 0 0 0 0 0 0 0
0 0 0 0 0 0 0 0 0 0 0 0 0 0 0 0 0 0 0 0 0 0 0 0 0 0 0 0 0 0 0 0 0 0 0 0 0 0 0 0 0 0 0 0 0 0 0
0 0 0 0 0 0 -0 0 0 0 0 0 0 0 0 0 0 0 0 0 0 0 0 0 0 0 0 0 0 0 0 0 0 0 0 0 0 0 0 0 0 0 0 0 0 0 0
0 0 0 0 0 0 -0 0 0 0 0 0 0 0 0 0 0 0 0 0 0 0 0 0 0 0 0 0 0 0 0 0 0 0 0 0 0 0 0 0 0 0 0 0 0 0 0
0 0 -0 0 0 0 0 0 0 0 0 0 0 0 0 0 0 0 0 0 0 0 0 0 0 0 0 0 0 0 0 0 0 0 0 0 0 0 0 0 0 0 0 0 0 0 0
-0 -0 0 -0 0 0 0 0 0 0 0 0 0 0 0 0 0 0 0 0 0 0 0 0 0 0 0 0 0 0 0 0 0 0 0 0 0 0 0 0 0 0 0 0 0 0 0
-0 -0 -0 -0 -0 0 0 0 -0 0 0 0 0 0 0 0 0 0 0 0 0 0 0 0 0 0 0 0 0 0 0 0 0 0 0 0 0 0 0 0 0 0 0 0 0 0 0
-0 -0 -0 0 -0 0 0 0 -0 0 0 0 0 0 0 0 0 0 0 0 0 0 0 0 0 0 0 0 0 0 0 0 0 0 0 0 0 0 0 0 0 0 0 0 0 0 0
-0 -0 -0 0 0 0 0 0 0 0 0 0 0 0 0 0 0 0 0 0 0 0 0 0 0 0 0 0 0 0 0 0 0 0 0 0 0 0 0 0 0 0 0 0 0 0 0
-0 -0 -0 0 0 0 0 0 0 0 0 0 0 0 0 0 0 0 0 0 0 0 0 0 0 0 0 0 0 0 0 0 0 0 0 0 0 0 0 0 0 0 0 0 0 0 0
-0 -0 0 0 0 0 0 0 0 0 0 0 0 0 0 0 0 0 0 0 0 0 0 0 0 0 0 0 0 0 0 0 0 0 0 0 0 0 0 0 0 0 0 0 0 0 0
-0 -0 0 0 0 0 0 0 0 0 0 0 0 0 0 0 0 0 0 0 0 0 0 0 0 0 0 0 0 0 0 0 0 0 0 0 0 0 0 0 0 0 0 0 0 0 0
-0 0 0 0 0 0 0 0 0 0 0 0 0 0 0 0 0 0 0 0 0 0 0 0 0 0 0 0 0 0 0 0 0 0 0 0 0 0 0 0 0 0 0 0 0 0 0
-0 0 0 0 0 0 0 0 0 0 0 0 0 0 0 0 0 0 0 0 0 0 0 0 0 0 0 0 0 0 0 0 0 0 0 0 0 0 0 0 0 0 0 0 0 0 0
-0 0 0 0 0 0 0 0 0 0 0 0 0 0 0 0 0 0 0 0 0 0 0 0 0 0 0 0 0 0 0 0 0 0 0 0 0 0 0 0 0 0 0 0 0 0 0
-0 0 0 0 0 0 0 0 0 0 0 0 0 0 0 0 0 0 0 0 0 0 0 0 0 0 0 0 0 0 0 0 0 0 0 0 0 0 0 0 0 0 0 0 0 0 0
-0 -0 -0 0 0 0 0 0 0 0 0 0 0 0 0 0 0 0 0 0 0 0 0 0 0 0 0 0 0 0 0 0 0 0 0 0 0 0 0 0 0 0 0 0 0 0 0
-0 0 -0 -0 -0 0 0 0 -0 -0 -0 0 0 0 0 0 0 0 0 0 0 0 0 0 0 0 0 0 0 0 0 0 0 0 0 0 0 0 0 0 0 0 0 0 0 0 0
0 -0 0 0 -0 -0 0 0 -0 0 0 0 0 0 0 0 0 0 0 0 0 0 0 0 0 0 0 0 0 0 0 0 0 0 0 0 0 0 0 0 0 0 0 0 0 0 0
Wind_Speed_500mb
57 54 52 81 75 64 83 73 76 71 64 66 71 68 58 53 51 44 37 33 28 22 18 15 14 11 10 7 9 16 5 8 5 10 17 17 16 18 11 10 4 11 6 3 16 9 3
59 60 63 44 88 68 67 77 76 77 76 70 64 67 68 58 51 49 41 34 30 24 19 17 14 10 13 13 11 18 13 6 5 8 13 18 7 15 12 6 10 6 10 7 10 6 4
54 59 67 64 53 81 67 70 77 81 80 79 72 71 72 66 52 51 46 37 31 25 23 19 14 15 14 16 12 12 17 4 6 11 13 16 13 9 5 3 3 4 0 10 10 14 7
50 51 56 61 73 60 78 62 74 87 79 74 73 71 73 71 59 54 47 39 33 29 23 19 17 12 12 15 26 8 10 7 6 18 14 17 14 9 2 14 6 5 6 7 9 25 8
48 50 56 54 74 65 62 71 70 88 81 73 70 69 72 77 65 59 50 41 33 27 23 22 17 13 10 12 24 22 12 9 10 11 12 15 16 9 3 8 8 11 6 16 8 20 10
51 52 53 52 62 75 68 58 61 88 92 77 75 71 70 75 74 63 51 40 34 28 26 20 13 8 24 10 13 24 25 20 12 15 14 10 8 7 7 10 8 10 11 9 11 14 11
51 53 57 55 53 56 78 78 88 71 78 100 83 79 72 78 80 69 59 49 29 18 39 17 18 9 10 11 15 14 26 22 14 20 9 25 8 15 18 18 21 14 6 14 9 11 5
51 49 55 59 52 58 60 74 70 73 64 87 94 91 81 84 82 74 68 67 61 16 17 29 14 38 11 16 7 15 34 20 20 13 20 7 16 15 11 12 11 9 14 11 9 11 5
55 51 51 57 59 54 61 60 79 79 95 87 92 94 90 88 81 76 79 78 55 29 12 26 29 27 21 21 10 28 42 20 17 21 22 13 6 30 16 6 7 13 14 12 8 3 13
60 53 53 53 62 59 61 56 70 77 61 105 96 96 96 94 83 82 85 63 54 35 4 15 24 23 33 18 9 26 44 24 13 22 14 15 8 9 15 16 15 15 16 14 10 5 6
60 56 55 56 57 59 61 59 60 81 77 93 97 102 104 106 61 90 82 58 64 26 10 31 21 22 42 30 34 23 42 26 12 14 13 8 14 15 14 18 14 4 9 11 12 11 9
62 64 53 54 59 57 55 60 64 82 67 89 111 106 109 97 71 86 85 72 55 9 14 9 16 23 28 34 18 22 21 14 7 11 10 5 3 4 11 3 14 12 9 7 2 2 4
63 69 56 54 61 58 59 59 64 74 97 97 113 103 106 105 67 92 89 69 9 10 6 13 14 27 31 22 19 19 25 18 14 13 14 6 7 6 3 9 6 10 11 3 1 0 10
52 63 49 53 57 58 59 54 66 86 103 93 112 93 100 92 91 83 84 11 10 11 8 11 23 32 30 28 19 23 27 20 24 12 18 13 8 15 11 10 10 14 11 6 8 5 3
52 56 45 53 55 53 48 52 75 65 87 102 98 101 95 93 78 105 51 10 13 12 16 25 28 25 17 24 10 20 24 23 27 25 9 13 8 8 9 6 10 11 13 6 5 4 5
64 44 44 47 46 47 51 45 76 62 96 101 100 86 66 94 99 99 22 14 11 12 25 33 11 13 12 30 14 24 27 27 18 30 12 5 8 4 3 5 16 2 3 5 2 4 9
68 35 45 41 34 33 19 59 60 54 76 94 88 27 58 100 110 74 20 12 8 20 38 19 14 15 12 22 18 22 20 1 36 30 23 7 5 3 10 14 19 7 4 7 7 7 5
66 42 42 32 25 14 13 59 65 59 75 83 34 9 58 110 15 9 15 18 14 11 8 6 15 13 24 31 20 23 16 18 31 36 31 15 4 9 11 7 16 20 16 17 7 8 9
60 48 42 34 29 23 24 31 51 55 71 63 35 13 67 82 9 17 10 8 12 13 7 9 9 7 12 20 11 11 18 16 7 29 23 20 10 5 9 3 5 9 13 20 16 10 21
63 48 42 34 32 30 24 33 49 56 54 55 17 7 13 44 6 19 26 11 7 37 10 7 11 13 10 13 8 18 8 3 7 12 14 37 7 7 9 9 6 9 14 20 22 13 20
58 46 40 35 37 35 28 29 34 50 62 54 9 5 5 9 14 13 16 28 24 12 10 19 5 10 15 9 8 9 12 5 4 8 8 14 9 8 13 5 5 8 10 17 26 22 26
52 41 38 31 30 31 27 23 25 37 32 34 9 7 13 8 31 22 20 24 35 15 19 12 9 19 14 13 14 14 16 10 9 8 10 0 3 10 4 7 8 13 16 15 20 22 33
44 36 33 29 28 26 26 23 31 27 21 16 28 12 15 6 5 20 13 23 34 31 20 37 20 14 15 7 27 23 17 21 12 15 15 14 9 6 7 8 6 17 18 30 30 26 24
36 34 27 23 23 27 27 23 25 39 30 25 29 13 10 8 11 6 9 14 29 32 13 22 39 15 23 48 46 34 30 24 17 7 8 7 11 6 7 6 7 9 19 17 20 19 25
29 24 21 20 21 20 18 20 22 12 16 18 30 19 7 6 16 13 21 14 26 20 9 12 9 18 46 24 8 8 6 8 8 6 7 0 7 4 7 11 21 28 5 9 11 42 25
20 19 21 20 22 23 28 24 16 18 31 36 24 25 13 12 4 24 11 23 6 6 6 8 19 33 25 6 6 8 8 9 8 6 4 10 7 5 3 8 18 14 17 40 18 43 27
16 16 18 21 24 24 18 17 13 11 27 23 34 26 16 17 10 26 8 19 24 18 6 9 9 8 14 4 5 6 8 10 10 14 9 7 9 27 24 21 14 15 21 16 12 41 14
8 15 24 21 18 23 25 25 23 18 20 22 22 14 15 13 16 20 14 26 30 30 9 20 11 2 5 4 6 7 5 11 5 11 14 17 17 11 11 13 34 24 20 28 34 63 64
10 18 31 30 26 22 22 22 23 21 17 12 14 14 13 9 15 26 25 19 25 27 29 43 5 15 18 6 6 6 2 4 8 7 9 7 14 10 19 14 15 18 20 33 43 53 57
Wind_Direction_500mb
260 263 257 242 249 247 243 237 235 232 231 227 227 226 225 220 217 213 211 208 206 201 198 202 215 206 187 215 250 272 282 344 304 213 196 196 219 228 248 252 117 261 250 64 76 83 353
259 257 254 261 237 248 242 244 232 233 229 226 226 223 223 221 217 211 205 202 202 195 187 195 193 187 189 238 254 250 240 359 71 120 175 190 210 237 320 254 207 325 229 194 141 214 245
265 254 260 253 243 243 248 241 234 232 229 225 228 228 220 219 215 206 200 199 199 192 191 202 203 198 213 222 276 252 211 201 110 122 166 186 223 177 210 285 81 11 93 274 213 222 242
268 264 254 258 253 247 239 248 242 236 219 221 221 219 216 215 208 201 195 198 204 201 202 208 203 196 248 243 242 248 199 189 118 149 155 186 151 214 244 101 140 192 277 211 208 189 167
266 261 260 255 255 253 242 242 243 232 220 219 214 214 212 209 203 197 189 192 200 198 205 203 201 186 250 243 222 213 197 178 148 135 153 148 144 173 201 192 180 207 236 215 168 192 179
266 263 262 259 255 253 254 253 248 236 227 218 213 214 209 205 198 190 186 196 204 200 193 185 210 199 236 205 203 207 198 171 153 145 120 168 170 152 211 219 195 202 218 219 220 183 239
260 258 261 259 251 254 251 254 235 232 220 211 220 213 209 202 199 192 186 176 173 202 192 179 189 185 137 177 195 175 190 163 173 172 183 192 202 189 192 219 252 344 220 234 184 114 20
257 259 257 256 255 255 254 246 255 233 236 217 216 215 208 201 197 190 197 185 188 198 178 210 174 215 195 173 149 175 158 161 187 186 210 167 230 215 207 221 235 257 288 250 128 160 167
250 255 256 254 251 250 256 242 246 255 229 225 215 212 205 199 196 191 199 199 195 154 152 204 201 188 184 171 204 182 174 185 189 203 207 197 22 202 211 145 178 246 241 271 279 282 247
246 252 257 255 248 247 252 250 232 243 237 220 211 208 199 194 191 188 192 190 184 163 148 164 196 222 190 154 238 186 179 170 183 206 217 230 210 193 151 197 185 222 214 232 302 313 243
248 246 255 254 253 245 251 250 234 240 244 206 208 201 195 192 181 182 183 175 168 164 218 165 159 184 175 166 137 180 180 212 209 196 184 208 176 166 185 200 177 213 130 181 209 246 334
250 246 248 251 249 247 249 247 235 234 217 209 200 196 191 185 181 186 184 165 155 131 215 151 136 178 158 186 172 145 166 152 214 228 245 118 41 175 203 143 173 124 134 121 129 40 274
254 236 241 242 247 244 247 240 233 221 202 200 199 195 184 180 169 176 169 153 161 214 156 172 173 171 179 178 147 177 166 177 175 162 183 131 176 107 308 124 52 186 177 138 191 256 228
257 221 233 241 243 242 246 237 225 224 203 201 188 197 184 191 191 184 160 132 199 134 177 197 160 164 189 163 186 179 165 181 227 232 154 168 181 176 180 210 179 190 205 164 233 196 4
232 217 226 237 245 232 233 243 208 219 204 200 185 189 189 185 181 183 160 189 177 157 157 153 141 160 181 186 158 167 189 193 198 213 195 168 162 140 175 205 155 173 220 299 21 76 67
231 216 220 230 236 227 235 212 213 218 191 182 175 180 189 182 181 175 168 178 184 155 146 146 122 170 163 181 184 182 180 198 205 202 206 224 113 338 70 25 299 222 348 76 353 172 243
219 195 216 225 217 241 263 178 186 195 175 185 181 150 156 172 175 173 187 157 179 178 158 162 140 150 164 176 192 189 193 89 189 183 188 188 117 166 130 208 188 181 227 222 170 184 204
212 186 201 210 199 222 129 166 175 184 190 173 143 127 161 166 159 158 151 152 144 174 168 95 136 118 169 175 189 192 197 206 187 166 193 201 200 158 193 339 225 220 202 214 172 206 228
195 179 186 189 186 178 152 167 164 162 160 150 129 95 175 170 137 167 132 123 116 142 146 164 134 119 156 162 158 206 198 122 146 162 174 187 193 132 152 348 302 208 214 230 250 281 240
164 169 174 178 170 167 151 153 168 181 188 162 119 121 120 194 119 150 145 116 119 179 165 171 110 94 122 143 78 186 134 48 146 197 177 168 164 189 174 130 125 195 216 215 227 240 261
153 159 164 166 167 168 161 166 168 166 178 180 75 73 100 136 173 140 143 161 135 154 186 184 121 166 150 123 104 166 132 88 32 127 168 169 180 229 267 174 230 248 240 225 234 251 255
139 151 150 150 158 160 169 153 166 176 148 131 92 127 86 63 145 140 167 174 179 151 159 193 149 193 170 145 168 172 135 167 175 167 167 208 172 180 251 302 307 261 249 261 273 273 273
128 139 140 138 140 152 146 153 156 173 181 82 103 108 126 44 90 154 181 173 196 165 194 182 177 161 181 121 110 146 110 145 145 159 192 172 124 91 247 193 319 289 196 229 241 246 257
119 131 132 136 133 135 155 162 163 151 164 149 131 83 35 97 76 54 121 145 169 180 134 190 184 141 121 121 107 89 64 49 30 59 43 194 145 124 192 71 257 238 180 198 215 232 237
104 113 123 132 133 132 138 160 179 208 152 152 139 121 126 91 110 68 59 70 86 79 54 76 75 146 144 108 78 69 47 26 334 257 280 331 134 167 157 200 275 274 187 232 201 265 241
98 109 110 124 141 138 141 136 124 191 121 154 130 135 124 127 198 140 119 142 85 60 63 64 103 147 124 85 125 162 172 164 192 281 332 218 212 170 137 191 233 317 176 221 217 263 210
99 119 120 127 141 144 146 144 166 138 98 147 113 104 110 101 137 143 157 172 144 138 77 101 108 132 143 118 128 163 192 164 166 175 166 160 198 220 226 242 258 216 145 171 191 259 278
199 180 159 151 140 143 146 139 120 108 123 130 99 104 75 83 127 148 142 162 151 142 141 156 105 46 55 136 146 209 157 203 143 194 178 168 170 204 207 238 261 190 188 196 237 261 270
210 190 190 171 156 154 150 146 136 142 140 137 82 112 103 133 150 147 140 136 158 159 147 170 163 150 162 145 197 126 116 115 172 225 198 231 192 188 186 211 250 209 201 232 250 261 270
Wind_Speed_850mb
57 54 52 81 75 64 83 73 76 71 64 66 71 68 58 53 51 44 37 33 28 22 18 15 14 11 10 7 9 16 5 8 5 10 17 17 16 18 11 10 4 11 6 3 16 9 3
59 60 63 44 88 68 67 77 76 77 76 70 64 67 68 58 51 49 41 34 30 24 19 17 14 10 13 13 11 18 13 6 5 8 13 18 7 15 12 6 10 6 10 7 10 6 4
54 59 67 64 53 81 67 70 77 81 80 79 72 71 72 66 52 51 46 37 31 25 23 19 14 15 14 16 12 12 17 4 6 11 13 16 13 9 5 3 3 4 0 10 10 14 7
50 51 56 61 73 60 78 62 74 87 79 74 73 71 73 71 59 54 47 39 33 29 23 19 17 12 12 15 26 8 10 7 6 18 14 17 14 9 2 14 6 5 6 7 9 25 8
48 50 56 54 74 65 62 71 70 88 81 73 70 69 72 77 65 59 50 41 33 27 23 22 17 13 10 12 24 22 12 9 10 11 12 15 16 9 3 8 8 11 6 16 8 20 10
51 52 53 52 62 75 68 58 61 88 92 77 75 71 70 75 74 63 51 40 34 28 26 20 13 8 24 10 13 24 25 20 12 15 14 10 8 7 7 10 8 10 11 9 11 14 11
51 53 57 55 53 56 78 78 88 71 78 100 83 79 72 78 80 69 59 49 29 18 39 17 18 9 10 11 15 14 26 22 14 20 9 25 8 15 18 18 21 14 6 14 9 11 5
51 49 55 59 52 58 60 74 70 73 64 87 94 91 81 84 82 74 68 67 61 16 17 29 14 38 11 16 7 15 34 20 20 13 20 7 16 15 11 12 11 9 14 11 9 11 5
55 51 51 57 59 54 61 60 79 79 95 87 92 94 90 88 81 76 79 78 55 29 12 26 29 27 21 21 10 28 42 20 17 21 22 13 6 30 16 6 7 13 14 12 8 3 13
60 53 53 53 62 59 61 56 70 77 61 105 96 96 96 94 83 82 85 63 54 35 4 15 24 23 33 18 9 26 44 24 13 22 14 15 8 9 15 16 15 15 16 14 10 5 6
60 56 55 56 57 59 61 59 60 81 77 93 97 102 104 106 61 90 82 58 64 26 10 31 21 22 42 30 34 23 42 26 12 14 13 8 14 15 14 18 14 4 9 11 12 11 9
62 64 53 54 59 57 55 60 64 82 67 89 111 106 109 97 71 86 85 72 55 9 14 9 16 23 28 34 18 22 21 14 7 11 10 5 3 4 11 3 14 12 9 7 2 2 4
63 69 56 54 61 58 59 59 64 74 97 97 113 103 106 105 67 92 89 69 9 10 6 13 14 27 31 22 19 19 25 18 14 13 14 6 7 6 3 9 6 10 11 3 1 0 10
52 63 49 53 57 58 59 54 66 86 103 93 112 93 100 92 91 83 84 11 10 11 8 11 23 32 30 28 19 23 27 20 24 12 18 13 8 15 11 10 10 14 11 6 8 5 3
52 56 45 53 55 53 48 52 75 65 87 102 98 101 95 93 78 105 51 10 13 12 16 25 28 25 17 24 10 20 24 23 27 25 9 13 8 8 9 6 10 11 13 6 5 4 5
64 44 44 47 46 47 51 45 76 62 96 101 100 86 66 94 99 99 22 14 11 12 25 33 11 13 12 30 14 24 27 27 18 30 12 5 8 4 3 5 16 2 3 5 2 4 9
68 35 45 41 34 33 19 59 60 54 76 94 88 27 58 100 110 74 20 12 8 20 38 19 14 15 12 22 18 22 20 1 36 30 23 7 5 3 10 14 19 7 4 7 7 7 5
66 42 42 32 25 14 13 59 65 59 75 83 34 9 58 110 15 9 15 18 14 11 8 6 15 13 24 31 20 23 16 18 31 36 31 15 4 9 11 7 16 20 16 17 7 8 9
60 48 42 34 29 23 24 31 51 55 71 63 35 13 67 82 9 17 10 8 12 13 7 9 9 7 12 20 11 11 18 16 7 29 23 20 10 5 9 3 5 9 13 20 16 10 21
63 48 42 34 32 30 24 33 49 56 54 55 17 7 13 44 6 19 26 11 7 37 10 7 11 13 10 13 8 18 8 3 7 12 14 37 7 7 9 9 6 9 14 20 22 13 20
58 46 40 35 37 35 28 29 34 50 62 54 9 5 5 9 14 13 16 28 24 12 10 19 5 10 15 9 8 9 12 5 4 8 8 14 9 8 13 5 5 8 10 17 26 22 26
52 41 38 31 30 31 27 23 25 37 32 34 9 7 13 8 31 22 20 24 35 15 19 12 9 19 14 13 14 14 16 10 9 8 10 0 3 10 4 7 8 13 16 15 20 22 33
44 36 33 29 28 26 26 23 31 27 21 16 28 12 15 6 5 20 13 23 34 31 20 37 20 14 15 7 27 23 17 21 12 15 15 14 9 6 7 8 6 17 18 30 30 26 24
36 34 27 23 23 27 27 23 25 39 30 25 29 13 10 8 11 6 9 14 29 32 13 22 39 15 23 48 46 34 30 24 17 7 8 7 11 6 7 6 7 9 19 17 20 19 25
29 24 21 20 21 20 18 20 22 12 16 18 30 19 7 6 16 13 21 14 26 20 9 12 9 18 46 24 8 8 6 8 8 6 7 0 7 4 7 11 21 28 5 9 11 42 25
20 19 21 20 22 23 28 24 16 18 31 36 24 25 13 12 4 24 11 23 6 6 6 8 19 33 25 6 6 8 8 9 8 6 4 10 7 5 3 8 18 14 17 40 18 43 27
16 16 18 21 24 24 18 17 13 11 27 23 34 26 16 17 10 26 8 19 24 18 6 9 9 8 14 4 5 6 8 10 10 14 9 7 9 27 24 21 14 15 21 16 12 41 14
8 15 24 21 18 23 25 25 23 18 20 22 22 14 15 13 16 20 14 26 30 30 9 20 11 2 5 4 6 7 5 11 5 11 14 17 17 11 11 13 34 24 20 28 34 63 64
10 18 31 30 26 22 22 22 23 21 17 12 14 14 13 9 15 26 25 19 25 27 29 43 5 15 18 6 6 6 2 4 8 7 9 7 14 10 19 14 15 18 20 33 43 53 57
Wind_Direction_850mb
260 263 257 242 249 247 243 237 235 232 231 227 227 226 225 220 217 213 211 208 206 201 198 202 215 206 187 215 250 272 282 344 304 213 196 196 219 228 248 252 117 261 250 64 76 83 353
259 257 254 261 237 248 242 244 232 233 229 226 226 223 223 221 217 211 205 202 202 195 187 195 193 187 189 238 254 250 240 359 71 120 175 190 210 237 320 254 207 325 229 194 141 214 245
265 254 260 253 243 243 248 241 234 232 229 225 228 228 220 219 215 206 200 199 199 192 191 202 203 198 213 222 276 252 211 201 110 122 166 186 223 177 210 285 81 11 93 274 213 222 242
268 264 254 258 253 247 239 248 242 236 219 221 221 219 216 215 208 201 195 198 204 201 202 208 203 196 248 243 242 248 199 189 118 149 155 186 151 214 244 101 140 192 277 211 208 189 167
266 261 260 255 255 253 242 242 243 232 220 219 214 214 212 209 203 197 189 192 200 198 205 203 201 186 250 243 222 213 197 178 148 135 153 148 144 173 201 192 180 207 236 215 168 192 179
266 263 262 259 255 253 254 253 248 236 227 218 213 214 209 205 198 190 186 196 204 200 193 185 210 199 236 205 203 207 198 171 153 145 120 168 170 152 211 219 195 202 218 219 220 183 239
260 258 261 259 251 254 251 254 235 232 220 211 220 213 209 202 199 192 186 176 173 202 192 179 189 185 137 177 195 175 190 163 173 172 183 192 202 189 192 219 252 344 220 234 184 114 20
257 259 257 256 255 255 254 246 255 233 236 217 216 215 208 201 197 190 197 185 188 198 178 210 174 215 195 173 149 175 158 161 187 186 210 167 230 215 207 221 235 257 288 250 128 160 167
250 255 256 254 251 250 256 242 246 255 229 225 215 212 205 199 196 191 199 199 195 154 152 204 201 188 184 171 204 182 174 185 189 203 207 197 22 202 211 145 178 246 241 271 279 282 247
246 252 257 255 248 247 252 250 232 243 237 220 211 208 199 194 191 188 192 190 184 163 148 164 196 222 190 154 238 186 179 170 183 206 217 230 210 193 151 197 185 222 214 232 302 313 243
248 246 255 254 253 245 251 250 234 240 244 206 208 201 195 192 181 182 183 175 168 164 218 165 159 184 175 166 137 180 180 212 209 196 184 208 176 166 185 200 177 213 130 181 209 246 334
250 246 248 251 249 247 249 247 235 234 217 209 200 196 191 185 181 186 184 165 155 131 215 151 136 178 158 186 172 145 166 152 214 228 245 118 41 175 203 143 173 124 134 121 129 40 274
254 236 241 242 247 244 247 240 233 221 202 200 199 195 184 180 169 176 169 153 161 214 156 172 173 171 179 178 147 177 166 177 175 162 183 131 176 107 308 124 52 186 177 138 191 256 228
257 221 233 241 243 242 246 237 225 224 203 201 188 197 184 191 191 184 160 132 199 134 177 197 160 164 189 163 186 179 165 181 227 232 154 168 181 176 180 210 179 190 205 164 233 196 4
232 217 226 237 245 232 233 243 208 219 204 200 185 189 189 185 181 183 160 189 177 157 157 153 141 160 181 186 158 167 189 193 198 213 195 168 162 140 175 205 155 173 220 299 21 76 67
231 216 220 230 236 227 235 212 213 218 191 182 175 180 189 182 181 175 168 178 184 155 146 146 122 170 163 181 184 182 180 198 205 202 206 224 113 338 70 25 299 222 348 76 353 172 243
219 195 216 225 217 241 263 178 186 195 175 185 181 150 156 172 175 173 187 157 179 178 158 162 140 150 164 176 192 189 193 89 189 183 188 188 117 166 130 208 188 181 227 222 170 184 204
212 186 201 210 199 222 129 166 175 184 190 173 143 127 161 166 159 158 151 152 144 174 168 95 136 118 169 175 189 192 197 206 187 166 193 201 200 158 193 339 225 220 202 214 172 206 228
195 179 186 189 186 178 152 167 164 162 160 150 129 95 175 170 137 167 132 123 116 142 146 164 134 119 156 162 158 206 198 122 146 162 174 187 193 132 152 348 302 208 214 230 250 281 240
164 169 174 178 170 167 151 153 168 181 188 162 119 121 120 194 119 150 145 116 119 179 165 171 110 94 122 143 78 186 134 48 146 197 177 168 164 189 174 130 125 195 216 215 227 240 261
153 159 164 166 167 168 161 166 168 166 178 180 75 73 100 136 173 140 143 161 135 154 186 184 121 166 150 123 104 166 132 88 32 127 168 169 180 229 267 174 230 248 240 225 234 251 255
139 151 150 150 158 160 169 153 166 176 148 131 92 127 86 63 145 140 167 174 179 151 159 193 149 193 170 145 168 172 135 167 175 167 167 208 172 180 251 302 307 261 249 261 273 273 273
128 139 140 138 140 152 146 153 156 173 181 82 103 108 126 44 90 154 181 173 196 165 194 182 177 161 181 121 110 146 110 145 145 159 192 172 124 91 247 193 319 289 196 229 241 246 257
119 131 132 136 133 135 155 162 163 151 164 149 131 83 35 97 76 54 121 145 169 180 134 190 184 141 121 121 107 89 64 49 30 59 43 194 145 124 192 71 257 238 180 198 215 232 237
104 113 123 132 133 132 138 160 179 208 152 152 139 121 126 91 110 68 59 70 86 79 54 76 75 146 144 108 78 69 47 26 334 257 280 331 134 167 157 200 275 274 187 232 201 265 241
98 109 110 124 141 138 141 136 124 191 121 154 130 135 124 127 198 140 119 142 85 60 63 64 103 147 124 85 125 162 172 164 192 281 332 218 212 170 137 191 233 317 176 221 217 263 210
99 119 120 127 141 144 146 144 166 138 98 147 113 104 110 101 137 143 157 172 144 138 77 101 108 132 143 118 128 163 192 164 166 175 166 160 198 220 226 242 258 216 145 171 191 259 278
199 180 159 151 140 143 146 139 120 108 123 130 99 104 75 83 127 148 142 162 151 142 141 156 105 46 55 136 146 209 157 203 143 194 178 168 170 204 207 238 261 190 188 196 237 261 270
210 190 190 171 156 154 150 146 136 142 140 137 82 112 103 133 150 147 140 136 158 159 147 170 163 150 162 145 197 126 116 115 172 225 198 231 192 188 186 211 250 209 201 232 250 261 270